Weather Roundup
Issued by NWS Corpus Christi, TX

Home | Current Version | Previous Version | Text Only | Print | Product List | Glossary On
Versions: 1 2 3 4 5 6 7 8 9 10 11 12 13 14 15 16 17 18 19 20 21 22 23 24 25 26 27 28 29 30 31 32 33 34 35 36 37 38 39 40 41 42 43 44 45 46 47 48 49 50
000
ASUS44 KCRP 280210
HRRCRP

SOUTH TEXAS REGIONAL WEATHER ROUNDUP
NATIONAL WEATHER SERVICE CORPUS CHRISTI TX
900 PM CDT SAT MAY 27 2017


TXZ229>244-280300-
...CORPUS CHRISTI AREA OBSERVATIONS...

CITY           SKY/WX    TMP DP  RH WIND       PRES   REMARKS
CORPUS CHRISTI CLOUDY    81  78  91 SE14      29.83R
NAS CORPUS CHR CLOUDY    82  79  90 SE16G24   29.83R HX  92
ROCKPORT       MOCLDY    81  76  84 SE15      29.84R
KINGSVILLE NAS MOCLDY    82  79  90 SE13      29.83R HX  92
ALICE          CLOUDY    81  76  84 SE12      29.82R
ORANGE GROVE   CLOUDY    81  77  88 SE17      29.84R
FALFURRIAS     CLOUDY    83  76  78 SE13      29.81R HX  91
$$

...VICTORIA AREA OBSERVATIONS...

CITY           SKY/WX    TMP DP  RH WIND       PRES   REMARKS
VICTORIA       MOCLDY    79  75  87 SE7       29.86R
BEEVILLE       FAIR      80  80 100 SE14      29.84R HX  90
PLEASANTON     MOCLDY    83  73  72 SE9       29.82R
SAN ANTONIO    CLOUDY    85  75  72 SE20      29.84R HX  93
$$

...LAREDO AREA OBSERVATIONS...

CITY           SKY/WX    TMP DP  RH WIND       PRES   REMARKS
LAREDO         NOT AVBL
COTULLA        CLOUDY    91  74  57 SE13      29.79R HX 100
DEL RIO        MOCLDY    87  75  67 W8        29.77S HAZE    HX  96
MCALLEN        CLOUDY    87  75  67 SE22G29   29.82R HX  96
HEBBRONVILLE   CLOUDY    86  73  65 SE15      29.83R HX  94
$$

...OTHER TEXAS OBSERVATIONS...

CITY           SKY/WX    TMP DP  RH WIND       PRES   REMARKS
BROWNSVILLE    MOCLDY    83  78  85 SE9       29.84R HX  93
HOUSTON        PTCLDY    82  73  74 S10       29.87R
COL. STATION   CLEAR     83  74  74 S13       29.84R
AUSTIN         CLOUDY    85  74  69 S17       29.82R HX  92
WACO           CLEAR     86  74  67 S15       29.79R HX  94
FORT WORTH     PTCLDY    88  75  65 S20G28    29.73S HX  97
WICHITA FALLS  CLEAR     84  66  54 S7        29.66F
LUBBOCK        PTCLDY    83  20   9 NW7       29.86R
EL PASO        PTCLDY    89  22   8 W17       29.94R
$$

...MARINE OBSERVATIONS...

STATION/POSITION TIME  SKY/WX   TEMP    WIND        PRES    VSBY  WAVE   SWELL
                                AIR SEA DIR/SP/G                  HT/PER HT/PER
                 (UTC)          (F)     (DEG/KT/KT) (MB)    (MI)  (FT/S) (FT/S)
PORT ARANSAS     0100            80 83  120/ 17/ 18 1009.9R
BUOY 90 E PORT A 0050            80 80  110/ 14/ 16 1010.8          4/ 7   2/ 7
BUOY 45 SE BAFFI 0150            81     140/ 16/ 19 1009.2R         5/ 7   2/11
BUOY 200 E PT IS 0050            81 81  140/ 12/ 14 1012.6          4/ 6   3/ 6
BUOY 15 E GALVES 0050            80 80  140/ 10/ 12 1012.4          3/ 7   2/ 7
$$




USA.gov is the U.S. government's official web portal to all federal, state and local government web resources and services.